GFSSE_prec_cloud_024.txt.gz
Cloud_Cover
5 5 5 5 7 17 5 1 0 0 0 5 16 31 0 2 0 30 3 0 0 23 1 0 0 0 0 8 4 12 1 2 5 8 84 6 66 96 5 36 77 73 8
5 5 5 5 4 13 0 0 0 0 0 0 0 0 0 0 2 1 3 18 4 10 3 9 6 0 4 2 0 0 0 0 0 0 0 0 3 100 96 0 5 6 5
3 3 0 3 4 19 1 1 0 0 0 0 0 0 0 0 0 0 1 6 18 35 7 4 7 0 1 2 0 0 0 0 1 0 33 9 1 22 100 31 5 17 57
0 0 0 0 0 8 11 11 0 0 0 0 0 0 0 0 0 0 6 18 29 100 99 14 8 1 0 0 20 0 0 0 0 8 77 84 0 0 0 4 5 5 5
0 0 0 0 0 0 18 0 0 5 0 0 0 0 0 0 0 0 0 94 15 100 100 99 67 18 5 0 1 0 0 0 0 100 95 52 0 1 0 1 0 3 5
0 0 0 0 0 1 2 0 1 5 2 0 0 0 0 0 0 0 0 3 0 24 100 100 92 58 22 0 2 0 0 0 100 99 56 0 1 8 0 0 0 0 0
0 0 0 0 1 0 0 0 4 5 5 0 0 0 0 0 0 0 0 0 0 0 4 63 98 100 19 9 2 0 0 0 53 98 93 99 0 7 2 0 0 0 0
5 4 0 0 0 0 0 0 3 5 5 0 0 0 0 0 0 0 0 0 0 0 0 0 2 41 100 95 51 0 0 0 66 100 98 92 0 100 38 5 0 0 0
5 4 0 0 0 0 0 2 11 100 3 0 0 0 0 0 0 0 0 0 0 0 0 0 0 0 6 36 66 0 0 0 100 100 100 100 48 99 26 6 0 0 0
0 0 0 0 0 1 0 88 100 9 0 0 0 0 0 0 0 0 0 0 0 0 0 0 0 0 0 0 0 0 0 9 99 35 0 56 91 58 69 58 10 2 19
0 0 0 0 0 0 6 38 100 5 5 0 0 0 0 0 0 0 0 0 0 0 0 0 0 2 1 0 0 0 0 0 86 0 0 3 79 79 94 77 98 65 79
0 4 0 0 0 1 43 57 100 5 2 0 0 0 0 0 0 0 0 0 0 0 0 0 0 0 5 2 0 0 0 0 0 0 0 4 66 100 100 100 70 99 100
0 0 0 0 0 0 5 65 13 0 5 0 0 0 0 0 0 0 0 0 0 0 0 0 0 0 2 5 5 0 0 0 0 0 0 0 0 5 26 0 1 58 80
0 0 0 6 0 2 5 0 0 5 1 4 0 0 0 0 0 0 0 0 0 0 0 0 0 0 0 5 5 4 0 0 0 0 0 0 0 0 0 0 0 0 22
0 0 83 79 16 15 71 57 39 24 91 8 0 0 0 0 0 0 0 0 0 0 0 0 0 0 0 5 37 5 0 0 0 0 0 0 0 0 0 0 0 0 0
0 0 24 50 41 100 100 100 98 57 7 0 0 0 0 0 0 0 0 0 0 0 0 0 0 0 0 4 5 5 3 0 0 0 0 0 0 0 0 0 0 0 0
0 0 0 0 5 4 3 2 4 5 0 0 0 0 0 0 0 0 0 0 0 0 0 0 0 0 0 4 31 2 0 0 0 0 0 0 0 0 0 0 0 0 0
0 0 0 0 0 0 0 0 0 0 0 0 0 0 0 0 0 0 0 0 0 0 0 0 0 1 0 4 16 4 0 0 0 0 0 0 0 0 0 0 0 0 0
0 0 0 0 0 0 0 0 0 0 0 0 0 0 0 0 0 0 0 0 0 0 0 0 0 5 3 4 5 5 0 0 0 0 0 0 0 0 0 0 0 0 0
0 0 0 0 0 0 0 0 0 0 0 0 0 0 0 0 0 0 0 0 0 0 0 0 0 2 0 4 1 0 0 0 0 0 0 0 0 0 0 0 0 0 0
0 0 0 0 0 0 0 0 0 0 0 0 0 0 0 0 0 0 0 0 0 0 0 0 0 1 0 2 0 0 0 0 0 0 0 0 0 0 0 0 0 0 0
0 0 0 0 0 0 0 0 0 0 0 0 0 0 0 0 0 0 0 0 0 0 0 0 5 5 0 0 0 0 0 0 0 0 0 0 0 0 0 0 0 0 0
0 2 0 0 0 0 0 0 0 0 0 0 0 0 0 0 0 0 0 0 0 0 0 2 3 0 0 0 0 0 0 0 0 0 0 0 0 0 0 0 0 0 0
0 4 5 5 5 5 4 2 4 2 0 0 0 0 0 0 0 0 0 0 0 0 0 5 3 0 0 0 0 0 0 0 0 0 0 0 0 0 0 0 0 0 0
0 0 0 0 0 1 5 5 5 5 7 0 0 0 0 0 0 0 0 0 0 0 3 5 5 0 0 0 0 0 0 0 0 0 0 0 0 0 0 0 0 0 0
0 0 0 0 2 0 0 0 0 0 2 18 5 2 5 3 0 0 1 0 0 7 5 5 5 0 0 0 0 0 0 0 0 0 0 0 0 0 0 0 0 0 0

GFSSE_prec_cloud_027.txt.gz
Cloud_Cover
3 5 5 4 1 0 0 0 0 0 0 0 0 2 4 2 0 10 6 0 4 0 9 1 0 0 2 0 3 0 0 6 100 100 100 100 100 100 99 100 100 100 100
0 0 0 2 6 0 1 1 0 0 0 0 0 0 0 0 0 12 19 17 4 1 11 5 0 0 0 0 0 0 0 0 0 47 100 100 100 100 91 8 84 100 100
0 0 0 0 4 0 0 7 0 0 0 0 0 0 0 0 0 0 6 17 17 5 2 1 2 0 0 0 0 0 0 0 0 0 0 0 1 5 9 4 57 17 19
0 0 0 0 0 0 13 10 0 0 0 0 0 0 0 0 0 0 39 3 100 100 97 5 3 0 0 0 0 0 0 0 0 1 46 73 0 2 0 1 2 99 16
0 0 0 0 0 1 20 14 0 0 0 0 0 0 0 0 0 0 0 24 100 100 97 46 13 11 0 0 0 0 0 0 0 8 92 16 0 20 15 0 0 1 1
0 0 0 0 0 1 7 16 0 0 0 2 5 3 0 0 0 0 0 0 8 100 100 100 92 30 5 0 0 0 0 0 98 97 4 0 1 16 0 0 0 0 0
0 0 0 0 0 14 17 0 0 0 0 0 2 0 0 0 0 0 0 0 0 0 4 95 100 100 2 8 0 0 0 0 22 65 95 81 0 3 23 2 0 0 0
0 0 0 0 0 7 9 0 4 0 0 0 5 1 0 0 0 0 0 0 0 0 0 0 25 100 82 12 2 0 0 0 0 73 1 76 0 55 0 4 0 0 0
0 0 0 0 0 0 0 0 2 0 0 10 14 5 0 0 0 0 0 0 0 0 0 0 0 27 81 32 0 0 0 0 0 20 72 91 0 2 8 0 0 0 0
1 0 0 4 0 0 0 0 3 3 0 14 28 7 0 0 0 0 0 0 0 0 0 0 0 0 0 0 0 1 0 3 0 0 0 1 98 45 15 57 3 3 4
0 0 0 0 4 0 0 0 42 19 3 5 7 1 0 0 3 0 0 0 0 0 0 0 0 0 0 0 0 4 5 0 0 0 0 0 23 65 100 72 48 69 92
0 0 3 0 0 0 0 0 1 1 4 6 31 0 5 5 4 0 0 0 0 0 0 0 0 0 0 0 0 5 5 1 0 0 0 0 65 93 98 99 99 96 94
0 0 0 3 0 0 0 0 95 100 30 26 6 47 96 68 1 0 0 0 0 0 0 0 0 0 0 0 0 2 12 5 0 0 0 0 0 47 72 1 0 7 44
0 0 0 0 0 0 0 1 94 96 98 100 98 100 95 5 0 0 0 0 0 0 0 0 0 0 0 0 0 0 28 13 0 0 0 0 0 0 0 0 0 0 0
0 0 0 0 0 0 0 4 88 81 78 100 72 17 4 0 0 0 0 0 0 0 0 0 0 0 0 0 0 0 4 49 2 0 0 0 0 0 0 0 0 0 0
0 0 0 0 0 0 0 0 0 0 1 3 4 0 0 0 0 0 0 0 0 0 0 0 0 0 0 0 0 0 2 5 5 0 0 0 0 0 0 0 0 0 0
0 0 0 0 0 0 0 0 0 0 0 0 0 0 0 0 0 0 0 0 0 0 0 0 0 0 0 0 0 0 0 5 5 0 0 0 0 0 0 0 0 0 0
0 0 0 0 0 0 0 0 0 0 0 0 0 0 0 0 0 0 0 0 0 0 0 0 0 0 0 0 0 0 0 5 0 0 0 0 0 0 0 0 0 0 0
0 0 0 0 0 0 0 0 0 0 0 0 0 0 0 0 0 0 0 0 0 0 0 0 0 0 0 0 0 0 0 0 0 0 0 0 0 0 0 0 0 0 0
0 0 0 0 0 0 0 0 0 0 0 0 0 0 0 0 0 0 0 0 0 0 0 0 0 0 0 0 0 0 0 0 0 0 0 0 0 0 0 0 0 0 0
0 0 0 0 0 0 0 0 20 100 13 0 0 0 0 0 0 0 0 0 0 0 0 0 0 0 0 0 0 4 0 0 0 0 0 0 0 0 0 0 0 0 0
0 0 0 0 0 0 0 2 18 20 93 97 10 0 0 0 0 0 0 0 0 0 0 0 0 0 0 0 0 2 0 0 0 0 0 0 0 0 0 0 0 0 0
0 0 0 0 0 0 0 0 0 0 0 51 100 53 3 0 0 0 0 0 0 0 0 0 0 0 0 0 0 1 0 0 0 0 0 0 0 0 0 0 0 0 0
0 0 0 0 0 0 0 0 0 0 6 48 6 99 100 48 1 5 0 0 0 5 0 0 0 0 0 0 0 0 5 0 0 0 0 0 0 0 0 0 0 0 0
0 0 0 0 0 0 0 0 0 0 0 0 8 70 94 99 89 22 4 0 0 2 0 0 0 0 1 5 3 5 5 0 0 0 0 0 0 0 0 0 0 0 0
0 0 0 0 0 0 0 0 0 0 0 0 0 0 0 0 35 99 83 9 2 0 3 0 2 5 5 5 5 5 5 0 0 0 0 0 0 0 0 0 0 0 0

GFSSE_prec_cloud_030.txt.gz
Cloud_Cover
10 4 3 0 0 5 0 6 7 6 9 7 20 13 6 54 44 6 4 5 1 7 4 9 0 0 0 18 1 56 2 4 55 100 100 100 100 100 100 100 100 97 100
5 3 0 0 3 0 0 7 1 2 0 3 13 10 11 2 2 31 9 0 6 9 9 0 5 0 0 0 0 0 0 0 0 10 99 100 100 100 100 100 100 100 100
5 0 0 1 9 0 0 68 1 0 0 0 0 15 0 0 0 99 17 21 4 4 13 3 16 0 0 0 0 0 0 0 0 0 1 84 100 100 100 100 100 100 100
0 0 0 1 0 0 0 5 0 0 0 0 0 0 5 0 0 43 21 75 7 81 20 4 3 0 0 0 0 0 0 0 0 0 0 0 6 98 100 100 79 100 87
0 0 0 0 0 0 40 6 0 0 0 0 0 0 0 2 1 2 5 100 100 99 41 9 2 0 0 0 0 0 0 0 0 0 0 0 0 1 12 2 3 2 2
0 0 0 0 5 17 50 17 0 0 0 0 0 0 0 5 1 0 0 79 17 100 100 100 24 1 12 0 0 18 0 0 62 15 1 0 0 9 6 1 0 0 0
0 0 0 0 0 2 51 20 0 0 0 0 0 0 1 26 2 0 0 0 0 0 43 42 97 6 10 0 0 0 0 0 0 0 0 0 0 0 10 9 0 0 0
0 0 0 0 0 1 13 22 15 0 0 0 0 0 0 5 5 0 0 5 0 0 0 4 100 100 2 0 0 0 0 0 0 0 0 0 0 1 0 13 1 0 0
0 0 0 5 0 0 0 10 12 0 2 0 0 0 0 0 7 0 0 4 2 0 0 0 50 100 96 6 0 0 0 0 0 0 0 0 0 8 1 0 1 0 0
3 1 10 30 4 5 0 1 2 1 0 0 0 0 0 0 5 1 4 5 0 0 0 0 0 1 0 0 0 0 5 0 0 0 0 0 0 0 10 41 0 22 1
47 7 41 20 48 6 3 4 0 1 3 0 0 46 5 5 5 47 12 5 2 0 0 0 0 0 0 0 14 15 0 0 0 0 0 0 0 2 35 23 7 66 53
43 57 39 9 12 5 0 0 0 1 0 0 1 76 5 5 14 93 62 5 0 0 0 0 0 0 0 0 0 0 0 0 5 4 0 0 0 40 83 100 100 100 100
98 13 6 6 5 0 0 2 21 11 0 3 2 84 93 79 100 100 24 0 0 0 0 0 0 0 0 0 0 0 0 0 0 5 0 0 0 58 100 67 14 36 42
4 2 0 0 2 0 0 0 0 0 0 0 2 5 49 24 5 14 5 0 0 0 0 0 0 0 0 0 0 0 0 0 0 3 5 0 0 50 36 2 0 0 7
0 0 0 0 0 0 0 0 0 0 0 0 0 0 1 2 0 0 0 0 0 0 0 0 0 0 0 0 0 0 0 0 0 0 5 0 0 0 0 0 0 0 0
0 0 0 0 0 0 0 0 0 0 0 0 0 0 0 0 0 0 0 0 0 0 0 0 0 0 0 0 0 0 0 0 0 0 0 0 0 0 0 0 0 0 0
0 0 0 0 0 0 0 0 0 0 0 0 0 0 0 0 0 0 0 0 0 0 0 0 0 0 0 0 0 0 0 0 0 0 0 0 0 0 0 0 0 0 0
0 0 0 0 0 0 0 0 0 0 0 0 0 0 0 0 0 0 0 0 0 0 0 0 0 0 0 0 0 0 0 0 0 0 0 0 0 0 0 0 0 0 0
0 0 0 0 0 0 0 0 0 0 0 3 6 0 0 0 0 0 0 0 0 0 0 0 0 0 0 0 0 0 0 0 0 0 0 0 0 0 0 0 0 0 0
0 0 0 0 0 0 0 0 0 0 22 92 100 86 4 0 0 0 0 0 0 0 0 0 0 0 0 0 0 0 0 0 0 0 0 0 0 0 0 0 0 0 0
0 0 0 0 0 0 0 0 0 0 9 100 98 99 62 100 31 5 5 2 0 0 0 0 0 0 0 0 0 0 0 0 0 0 0 0 0 0 0 0 0 0 0
0 0 0 0 0 0 0 0 0 0 2 92 100 95 79 57 88 99 20 0 0 0 0 0 0 0 0 0 0 0 0 0 0 0 0 0 0 0 0 0 0 0 0
0 0 0 0 0 0 0 0 0 0 0 0 1 79 100 87 39 5 100 100 36 46 1 0 5 5 4 1 0 0 3 2 3 0 0 0 0 0 0 0 0 0 0
0 0 0 0 0 0 0 0 0 0 0 0 0 0 26 71 93 0 2 53 96 100 78 5 5 5 5 5 4 5 5 7 5 5 0 4 0 0 0 0 0 0 0
0 0 0 0 0 0 0 0 0 0 0 0 0 0 0 0 22 48 6 99 59 24 73 82 16 5 5 5 5 7 7 7 5 5 5 5 5 0 0 0 0 0 0
0 0 0 0 0 0 0 0 0 0 0 0 0 0 0 0 0 0 0 0 0 2 21 22 68 5 5 5 6 52 5 80 9 5 5 5 5 0 0 0 0 0 0

GFSSE_prec_cloud_033.txt.gz
Cloud_Cover
2 1 3 15 5 32 5 6 16 7 7 10 43 13 69 95 69 9 5 6 9 0 8 8 4 8 2 75 69 8 2 0 0 99 90 100 100 100 100 100 100 100 100
0 0 2 5 3 18 60 16 98 47 14 11 100 15 6 34 28 4 7 11 9 14 5 15 2 7 0 1 24 0 0 0 0 0 56 42 93 100 100 100 100 100 100
0 0 1 3 1 8 8 19 4 23 16 15 10 19 12 0 4 33 46 74 76 22 11 15 11 0 1 2 5 12 2 0 0 0 0 0 38 100 100 100 92 100 100
4 5 4 41 7 1 4 26 12 2 7 14 16 21 3 0 0 100 10 49 61 23 17 9 21 5 0 11 0 0 0 0 0 0 0 0 0 5 17 5 34 99 100
5 5 8 55 5 13 50 33 10 14 2 3 6 1 0 0 0 16 8 21 96 100 7 9 10 14 12 12 0 0 0 0 0 0 0 0 0 8 0 0 6 3 24
2 5 1 32 6 38 92 74 15 16 6 0 0 0 0 0 0 4 16 61 16 7 50 100 14 8 14 2 0 0 0 0 0 0 0 0 0 13 13 0 0 0 1
4 0 0 5 12 14 100 58 24 12 0 0 0 0 0 0 0 0 4 17 13 5 14 25 0 11 14 22 15 5 0 0 0 0 0 0 0 18 20 3 0 0 2
4 5 5 5 0 2 66 94 24 0 0 0 0 0 0 0 0 1 3 7 7 6 16 14 7 44 12 20 0 0 0 0 0 0 0 0 0 0 6 3 0 0 0
11 54 89 13 5 5 5 33 23 11 0 0 0 0 0 0 0 5 5 5 5 6 49 16 100 100 19 8 0 0 0 0 0 0 0 2 0 0 8 2 1 0 15
26 20 12 5 16 17 0 0 16 4 0 0 0 0 0 0 0 4 5 5 5 6 70 61 92 100 98 1 0 0 0 0 0 0 0 0 0 0 45 43 1 0 4
4 2 7 37 37 15 4 0 0 0 3 0 0 0 0 0 0 0 5 5 18 28 70 5 0 2 1 2 46 52 14 6 5 0 0 0 0 0 17 0 32 11 0
3 19 73 100 57 20 0 0 0 0 0 0 0 0 4 4 0 0 3 98 96 17 48 5 2 0 0 0 28 52 40 17 0 0 0 0 0 0 0 86 78 78 66
4 0 64 78 64 34 0 0 0 9 0 0 0 0 0 0 0 0 0 1 3 1 1 0 0 0 0 0 0 0 1 0 0 0 0 0 0 0 52 100 100 100 100
4 4 10 95 77 48 0 4 14 0 2 0 0 0 4 0 0 0 0 0 0 0 0 0 0 0 0 0 0 0 0 0 0 0 0 0 0 10 99 44 22 6 32
0 0 0 0 31 63 23 2 22 10 0 0 0 0 0 0 0 0 0 0 0 0 0 0 0 0 0 0 0 0 0 0 0 0 0 0 0 1 5 0 0 0 0
0 0 0 0 0 0 6 8 59 65 62 22 1 0 0 0 0 0 0 0 0 0 0 0 0 0 0 0 0 0 0 0 0 0 0 0 0 0 0 0 0 0 0
0 0 0 0 0 91 32 16 0 0 1 4 0 0 0 0 0 0 0 0 0 0 0 0 0 0 0 0 0 0 0 0 0 0 0 0 0 0 0 0 0 0 0
0 0 0 0 0 0 25 67 29 0 0 0 37 3 32 74 19 0 0 0 0 0 0 0 0 0 0 0 0 0 0 0 0 0 0 0 0 0 0 0 0 0 0
0 0 0 0 0 0 0 0 2 5 5 2 0 10 82 96 97 23 0 3 0 0 0 0 0 0 0 0 0 0 0 0 0 0 0 0 0 0 0 0 0 0 0
0 0 0 0 0 0 0 0 0 0 0 3 30 23 7 46 32 98 82 2 94 10 0 0 0 0 0 0 0 0 0 0 0 0 0 0 0 0 0 0 0 0 0
0 0 0 0 0 0 0 0 0 0 0 11 0 0 38 5 18 6 5 44 84 1 64 29 1 0 0 0 0 0 0 0 0 3 0 0 0 0 0 0 0 0 0
0 0 0 0 0 0 0 0 0 0 0 2 92 100 100 100 100 86 3 5 5 39 31 22 17 22 0 0 0 0 0 0 0 0 5 5 1 0 0 0 0 0 0
0 0 0 0 0 0 0 0 0 0 0 0 0 36 88 100 100 100 100 100 0 20 6 97 63 97 69 2 0 0 0 2 3 5 13 5 5 5 5 0 0 0 0
0 0 0 0 0 0 0 0 0 0 0 0 0 0 0 0 0 3 55 100 96 67 2 2 98 92 100 90 4 3 0 0 5 5 22 6 5 5 5 5 0 0 0
0 0 0 0 0 0 0 0 0 0 0 0 0 0 0 0 0 0 0 3 14 1 98 1 0 97 11 100 94 6 0 5 8 5 22 72 72 5 5 5 5 0 0
0 0 0 0 0 0 0 0 0 0 0 0 0 0 0 0 0 0 0 0 0 0 0 46 1 41 0 7 100 80 5 5 5 34 76 59 5 5 5 20 5 4 5